Location: Caltech
(34.1382°N, 118.1253°W)
Time: 06:36:00
(UTC-07:00)

TMSAT-1 - Visible Passes

Search period start: 20 June 2018 00:00
Search period end: 30 June 2018 00:00
Orbit: 808 x 812 km, 98.6° (Epoch: 19 June)

Date Brightness Start Highest point End Pass type
(mag) Time Alt. Az. Time Alt. Az. Time Alt. Az.
20 Jun 9.5 02:24:31 10° NNE 02:29:43 52° E 02:29:52 52° ESE visible
20 Jun 10.9 04:05:48 10° NNW 04:09:06 17° WNW 04:11:01 14° W visible
21 Jun 10.4 02:01:19 10° NE 02:05:55 30° E 02:05:55 30° E visible
21 Jun 10.2 03:41:15 10° NNW 03:45:43 28° WNW 03:47:04 25° W visible
22 Jun 11.1 01:38:39 10° NE 01:41:58 18° E 01:41:58 18° E visible
22 Jun 9.5 03:17:08 10° N 03:22:13 47° WNW 03:23:06 43° W visible
23 Jun 8.9 02:53:20 10° N 02:58:39 81° WNW 02:59:09 72° SW visible
24 Jun 9.3 02:29:45 10° NNE 02:35:00 59° E 02:35:11 59° ESE visible
24 Jun 11.0 04:11:25 10° NNW 04:14:19 15° WNW 04:16:20 12° W visible
25 Jun 10.2 02:06:28 10° NNE 02:11:13 34° E 02:11:13 34° E visible
25 Jun 10.4 03:46:41 10° NNW 03:50:57 25° WNW 03:52:23 22° W visible
26 Jun 11.0 01:43:39 10° NE 01:47:16 20° E 01:47:16 20° E visible
26 Jun 9.7 03:22:30 10° N 03:27:28 42° WNW 03:28:25 38° W visible
27 Jun 11.6 01:22:12 10° ENE 01:23:18 11° E 01:23:18 11° E visible
27 Jun 9.0 02:58:37 10° N 03:03:55 72° WNW 03:04:27 66° WSW visible
28 Jun 9.2 02:35:00 10° NNE 02:40:18 68° ESE 02:40:29 67° ESE visible
28 Jun 11.1 04:17:07 10° NW 04:19:33 13° WNW 04:21:38 11° W visible
29 Jun 10.0 02:11:39 10° NNE 02:16:31 39° E 02:16:31 39° E visible
29 Jun 10.5 03:52:09 10° NNW 03:56:11 22° WNW 03:57:40 20° W visible
